Weather History for CWSA - October, 2013

Change the Weather History Date:

Monday, October 28, 2013

  Actual Average Record
Temperature  
Mean Temperature 50 °F -  
Max Temperature 54 °F 51 °F 64 °F (2003)
Min Temperature 47 °F 44 °F 35 °F (1999)
Degree Days  
Heating Degree Days 14    
Moisture  
Dew Point 41 °F    
Average Humidity 70    
Maximum Humidity 93    
Minimum Humidity 50    
Precipitation  
Precipitation 0.00 in - - ()
Sea Level Pressure  
Sea Level Pressure 29.97 in    
Wind  
Wind Speed 15 mph ()    
Max Wind Speed 25 mph    
Max Gust Speed 39 mph    
Visibility 8.7 miles    
Events Rain    
Averages and records for this station are not official NWS values.
T = Trace of Precipitation, MM = Missing Value Source: Averaged Metar Reports

Daily Weather History Graph

Daily Weather History Graph

Search for Another Location

Airport or City:

Trip Planner

Search our weather history database for the weather conditions in past years. The results will help you decide how hot, cold, wet, or windy it might be!

Date:

Astronomy

Oct. 28, 2013 Rise Set
Actual Time 7:31 AM ADT 5:55 PM ADT
Civil Twilight 7:01 AM ADT 6:25 PM ADT
Nautical Twilight 6:27 AM ADT 6:59 PM ADT
Astronomical Twilight 5:54 AM ADT 7:32 PM ADT
Moon 1:07 AM ADT (10/28) 2:45 PM ADT (10/28)
Length of Visible Light 11h 23m
Length of Day
10h 24m
Waning Crescent, 35% of the Moon is Illuminated
Oct 28
Waning Crescent
Nov 3
New
Nov 10
First Quarter
Nov 17
Full
Nov 25
Last Quarter

Hourly Weather History & Observations

Time (ADT) Temp. Dew Point Humidity Pressure Visibility Wind Dir Wind Speed Gust Speed Precip Events Conditions
12:00 AM 52 °F 45 °F 68% 29.83 in 9 mi WNW 15.0 mph - -  
12:00 AM 51.8 °F 44.6 °F 76% 29.83 in 9.0 mi WNW 16.1 mph - N/A   Partly Cloudy
12:22 AM 51.8 °F 44.6 °F 76% 29.83 in 9.0 mi WNW 18.4 mph 25.3 mph N/A   Mostly Cloudy
12:54 AM 51.8 °F 42.8 °F 71% 29.85 in 9.0 mi WNW 19.6 mph - N/A   Scattered Clouds
1:00 AM 51.8 °F 42.8 °F 71% 29.86 in 9.0 mi WNW 17.3 mph 24.2 mph N/A   Scattered Clouds
2:00 AM 51.8 °F 42.8 °F 71% 29.86 in 9.0 mi West 12.7 mph 18.4 mph N/A   Mostly Cloudy
3:00 AM 51 °F 42 °F 63% 29.87 in 9 mi West 15.0 mph - -  
3:00 AM 51.8 °F 42.8 °F 71% 29.87 in 9.0 mi West 16.1 mph - N/A   Mostly Cloudy
4:00 AM 50.0 °F 42.8 °F 76% 29.88 in 9.0 mi West 13.8 mph 20.7 mph N/A   Scattered Clouds
5:00 AM 50.0 °F 42.8 °F 76% 29.89 in 9.0 mi WNW 9.2 mph - N/A   Mostly Cloudy
5:19 AM 50.0 °F 42.8 °F 76% 29.89 in 9.0 mi WNW 12.7 mph - N/A Rain Light Rain
5:34 AM 50.0 °F 42.8 °F 76% 29.89 in 9.0 mi WNW 12.7 mph - N/A   Mostly Cloudy
5:53 AM 50.0 °F 42.8 °F 76% 29.90 in 9.0 mi West 13.8 mph - N/A Rain Light Rain
6:00 AM 49 °F 43 °F 74% 29.91 in 9 mi West 13.8 mph - - Rain Light Rain
6:00 AM 50.0 °F 42.8 °F 76% 29.91 in 9.0 mi West 12.7 mph - N/A Rain Light Rain
6:13 AM 48.2 °F 44.6 °F 87% 29.91 in 3.5 mi West 12.7 mph 18.4 mph N/A Rain Light Rain
6:30 AM 48.2 °F 44.6 °F 87% 29.91 in 7.0 mi West 9.2 mph - N/A   Overcast
6:32 AM 48.2 °F 42.8 °F 82% 29.91 in 7.0 mi West 10.4 mph - N/A   Mostly Cloudy
7:00 AM 48.2 °F 42.8 °F 82% 29.92 in 9.0 mi West 9.2 mph - N/A   Scattered Clouds
8:00 AM 50.0 °F 41.0 °F 71% 29.94 in 9.0 mi West 10.4 mph - N/A   Partly Cloudy
8:48 AM 50.0 °F 42.8 °F 76% 29.95 in 4.0 mi West 13.8 mph - N/A Rain Light Rain
9:00 AM 48 °F 45 °F 84% 29.95 in 9 mi West 12.7 mph - -   Unknown Precipitation
9:00 AM 48.2 °F 44.6 °F 87% 29.95 in 9.0 mi West 11.5 mph - N/A Rain Light Rain
9:06 AM 48.2 °F 46.4 °F 93% 29.95 in 9.0 mi West 6.9 mph - N/A   Overcast
10:00 AM 51.8 °F 44.6 °F 76% 29.96 in 8.0 mi West 15.0 mph - N/A   Scattered Clouds
11:00 AM 53.6 °F 42.8 °F 67% 29.96 in 9.0 mi West 19.6 mph 28.8 mph N/A   Partly Cloudy
12:00 PM 53 °F 44 °F 61% 29.98 in 9 mi West 20.7 mph - -  
12:00 PM 53.6 °F 42.8 °F 67% 29.98 in 9.0 mi West 23.0 mph 28.8 mph N/A   Partly Cloudy
12:13 PM 53.6 °F 39.2 °F 58% 29.98 in 9.0 mi West 21.9 mph 28.8 mph N/A   Mostly Cloudy
12:36 PM 53.6 °F 39.2 °F 58% 29.97 in 9.0 mi West 25.3 mph 32.2 mph N/A   Scattered Clouds
1:00 PM 53.6 °F 41.0 °F 62% 29.98 in 9.0 mi West 25.3 mph 33.4 mph N/A   Scattered Clouds
2:00 PM 51.8 °F 37.4 °F 58% 29.99 in 9.0 mi West 25.3 mph 39.1 mph N/A   Partly Cloudy
3:00 PM 50.0 °F 37.4 °F 62% 30.01 in 9.0 mi West 25.3 mph 32.2 mph N/A   Scattered Clouds
4:00 PM 50.0 °F 35.6 °F 58% 30.03 in 9.0 mi West 21.9 mph 32.2 mph N/A   Partly Cloudy
4:05 PM 50.0 °F 35.6 °F 58% 30.02 in 9.0 mi West 21.9 mph 32.2 mph N/A   Partly Cloudy
4:18 PM 50.0 °F 35.6 °F 58% 30.03 in 9.0 mi West 25.3 mph 36.8 mph N/A   Partly Cloudy
5:00 PM 50.0 °F 35.6 °F 58% 30.04 in 9.0 mi West 24.2 mph 32.2 mph N/A   Partly Cloudy
6:00 PM 49 °F 36 °F 50% 30.06 in 9 mi West 21.9 mph - -  
6:00 PM 50.0 °F 35.6 °F 58% 30.06 in 9.0 mi West 20.7 mph 29.9 mph N/A   Scattered Clouds
6:47 PM 50.0 °F 37.4 °F 62% 30.07 in 9.0 mi WNW 24.2 mph 32.2 mph N/A Rain Light Rain
6:58 PM 50.0 °F 37.4 °F 62% 30.07 in 9.0 mi West 21.9 mph 28.8 mph N/A   Partly Cloudy
6:59 PM 50.0 °F 37.4 °F 62% 30.07 in 9.0 mi West 23.0 mph 28.8 mph N/A Rain Light Rain
7:00 PM 50.0 °F 37.4 °F 62% 30.08 in 9.0 mi West 20.7 mph 28.8 mph N/A Rain Light Rain
7:20 PM 48.2 °F 39.2 °F 71% 30.09 in 9.0 mi WNW 21.9 mph 29.9 mph N/A   Partly Cloudy
8:00 PM 50.0 °F 39.2 °F 66% 30.09 in 9.0 mi West 18.4 mph - N/A   Partly Cloudy
8:43 PM 50.0 °F 39.2 °F 66% 30.10 in 9.0 mi West 23.0 mph 28.8 mph N/A Rain Light Rain
8:57 PM 48.2 °F 41.0 °F 76% 30.10 in 9.0 mi West 16.1 mph 24.2 mph N/A   Scattered Clouds
9:00 PM 49 °F 40 °F 62% 30.11 in 9 mi West 17.3 mph - -  
9:00 PM 48.2 °F 39.2 °F 71% 30.11 in 9.0 mi West 18.4 mph - N/A   Scattered Clouds
10:00 PM 50.0 °F 39.2 °F 66% 30.12 in 9.0 mi West 15.0 mph 20.7 mph N/A   Partly Cloudy
11:00 PM 51.8 °F 41.0 °F 67% 30.13 in 9.0 mi West 19.6 mph 28.8 mph N/A   Partly Cloudy